TimeCST,TemperatureF,Dew PointF,Humidity,Sea Level PressureIn,VisibilityMPH,Wind Direction,Wind SpeedMPH,Gust SpeedMPH,PrecipitationIn,Events,Conditions,WindDirDegrees,DateUTC
12:54 AM,46.0,39.0,76,30.05,10.0,NE,21.9,27.6,N/A,,Overcast,40,2011-11-08 06:54:00
1:54 AM,46.0,39.9,79,30.07,10.0,NE,13.8,-,N/A,,Overcast,50,2011-11-08 07:54:00
2:54 AM,44.1,39.9,85,30.06,7.0,NE,17.3,-,0.01,Rain,Light Rain,40,2011-11-08 08:54:00
3:52 AM,44.6,39.2,81,30.04,6.0,ENE,16.1,25.3,0.00,,Overcast,60,2011-11-08 09:52:00
3:54 AM,44.6,39.2,81,30.04,7.0,ENE,16.1,25.3,N/A,,Overcast,60,2011-11-08 09:54:00
4:54 AM,43.0,39.9,89,30.06,6.0,NE,15.0,23.0,0.00,Rain,Light Rain,50,2011-11-08 10:54:00
5:11 AM,42.8,39.2,87,30.06,5.0,NE,20.7,24.2,0.00,Rain,Light Rain,40,2011-11-08 11:11:00
5:20 AM,42.8,39.2,87,30.05,5.0,NE,21.9,25.3,0.00,Rain,Light Rain,50,2011-11-08 11:20:00
5:40 AM,42.8,39.2,87,30.06,4.0,NE,16.1,-,0.00,Rain,Light Rain,50,2011-11-08 11:40:00
5:46 AM,42.8,39.2,87,30.06,5.0,NE,15.0,23.0,0.00,Rain,Light Rain,40,2011-11-08 11:46:00
5:54 AM,43.0,39.9,89,30.06,6.0,NE,17.3,-,0.00,Rain,Light Rain,40,2011-11-08 11:54:00
6:11 AM,42.8,39.2,87,30.05,6.0,NE,16.1,21.9,0.00,Rain,Light Rain,40,2011-11-08 12:11:00
6:54 AM,43.0,41.0,93,30.07,5.0,NE,13.8,20.7,0.01,Rain,Light Rain,40,2011-11-08 12:54:00
7:54 AM,43.0,41.0,93,30.07,6.0,NE,12.7,20.7,0.00,,Light Drizzle,50,2011-11-08 13:54:00
8:10 AM,44.6,41.0,87,30.06,10.0,ENE,12.7,-,0.00,,Light Drizzle,60,2011-11-08 14:10:00
8:54 AM,44.1,39.9,85,30.07,10.0,ENE,15.0,-,0.00,,Overcast,60,2011-11-08 14:54:00
9:54 AM,44.1,39.9,85,30.09,10.0,ENE,12.7,20.7,N/A,,Overcast,60,2011-11-08 15:54:00
10:54 AM,44.1,41.0,89,30.07,3.0,NE,13.8,-,0.00,,Light Drizzle,50,2011-11-08 16:54:00
11:07 AM,44.6,41.0,87,30.06,3.0,NE,9.2,-,0.00,,Light Drizzle,40,2011-11-08 17:07:00
11:54 AM,44.1,41.0,89,30.06,4.0,NE,12.7,-,0.00,,Light Drizzle,40,2011-11-08 17:54:00
12:54 PM,44.1,41.0,89,30.04,7.0,NE,15.0,20.7,0.00,,Light Drizzle,40,2011-11-08 18:54:00
1:54 PM,44.6,41.0,87,30.02,10.0,NE,16.1,-,N/A,,Light Drizzle,50,2011-11-08 19:54:00
2:54 PM,44.6,41.0,87,30.02,5.0,NE,15.0,-,N/A,Rain,Light Rain,40,2011-11-08 20:54:00
3:24 PM,44.6,41.0,87,30.02,7.0,NE,13.8,-,0.02,Rain,Light Rain,40,2011-11-08 21:24:00
3:34 PM,44.6,41.0,87,30.01,7.0,NE,16.1,20.7,0.02,Rain,Light Rain,40,2011-11-08 21:34:00
3:54 PM,44.1,41.0,89,30.02,7.0,NNE,12.7,-,0.02,,Overcast,30,2011-11-08 21:54:00
4:54 PM,43.0,39.9,89,30.01,6.0,NNE,18.4,23.0,0.04,Rain,Rain,30,2011-11-08 22:54:00
5:52 PM,42.8,39.2,87,30.01,7.0,NNE,15.0,27.6,0.04,Rain,Light Rain,30,2011-11-08 23:52:00
5:54 PM,43.0,39.9,89,30.03,7.0,NNE,13.8,27.6,0.05,Rain,Rain,20,2011-11-08 23:54:00
6:23 PM,42.8,39.2,87,30.01,10.0,NNE,11.5,-,0.02,Rain,Light Rain,30,2011-11-09 00:23:00
6:30 PM,42.8,39.2,87,30.01,10.0,NNE,13.8,21.9,0.02,Rain,Light Rain,20,2011-11-09 00:30:00
6:54 PM,42.1,39.0,89,30.06,7.0,North,13.8,-,0.03,Rain,Light Rain,10,2011-11-09 00:54:00
7:03 PM,42.8,37.4,81,30.05,5.0,NNE,12.7,-,0.02,Rain,Rain,20,2011-11-09 01:03:00
7:27 PM,41.0,37.4,87,30.05,4.0,North,15.0,25.3,0.08,Rain,Rain,10,2011-11-09 01:27:00
7:46 PM,39.2,37.4,93,30.03,5.0,North,17.3,26.5,0.12,Rain,Rain,10,2011-11-09 01:46:00
7:54 PM,39.0,36.0,89,30.06,5.0,North,18.4,26.5,0.13,Rain,Light Rain,10,2011-11-09 01:54:00
8:54 PM,37.9,35.1,89,30.03,4.0,NNE,18.4,26.5,0.03,Rain-Snow,Light Rain,20,2011-11-09 02:54:00
9:28 PM,37.4,35.6,93,30.01,6.0,North,11.5,25.3,0.01,Snow,Light Snow,10,2011-11-09 03:28:00
9:52 PM,37.4,33.8,87,29.99,3.0,North,15.0,23.0,0.02,Rain-Snow,Light Snow,10,2011-11-09 03:52:00
9:54 PM,36.0,34.0,93,30.01,3.0,North,15.0,23.0,0.03,Rain-Snow,Light Snow,360,2011-11-09 03:54:00
10:54 PM,36.0,34.0,93,29.99,2.5,North,17.3,25.3,0.05,Rain-Snow,Light Snow,10,2011-11-09 04:54:00
11:03 PM,35.6,33.8,93,29.97,3.0,North,17.3,25.3,0.00,Rain-Snow,Light Snow,10,2011-11-09 05:03:00
11:54 PM,36.0,34.0,93,29.99,3.0,NNE,19.6,31.1,0.07,Rain-Snow,Light Snow,20,2011-11-09 05:54:00